| time (UTC) | temp F | wind direction | speed knots | gust knots | rain 1hr in | rain 24hr in | rain mn in | humidity % | barometer mb |
| 20260507161505 | 61 | 252 | 1.7 | 3.5 | 0.00 | 0.00 | 0.00 | 87 | 1017.7 |
| 20260507160009 | 61 | 223 | 0.9 | 3.5 | 0.00 | 0.00 | 0.00 | 88 | 1017.8 |
| 20260507154513 | 60 | 247 | 1.7 | 5.2 | 0.00 | 0.00 | 0.00 | 89 | 1017.7 |
| 20260507153005 | 60 | 222 | 2.6 | 4.3 | 0.00 | 0.00 | 0.00 | 89 | 1017.7 |
| 20260507151503 | 60 | 257 | 1.7 | 4.3 | 0.00 | 0.00 | 0.00 | 90 | 1017.6 |
| 20260507150039 | 60 | 257 | 0.9 | 2.6 | 0.00 | 0.00 | 0.00 | 91 | 1017.5 |
| 20260507144509 | 59 | 276 | 0.0 | 2.6 | 0.00 | 0.00 | 0.00 | 91 | 1017.4 |
| 20260507143038 | 59 | 251 | 2.6 | 5.2 | 0.00 | 0.00 | 0.00 | 91 | 1017.3 |
| 20260507141546 | 58 | 299 | 0.9 | 3.5 | 0.00 | 0.00 | 0.00 | 92 | 1017.2 |
| 20260507140034 | 58 | 266 | 0.9 | 2.6 | 0.00 | 0.00 | 0.00 | 91 | 1017.1 |
| 20260507134510 | 58 | 274 | 0.0 | 3.5 | 0.00 | 0.00 | 0.00 | 91 | 1017.0 |
| 20260507133019 | 58 | 351 | 0.9 | 2.6 | 0.00 | 0.00 | 0.00 | 91 | 1017.0 |
| 20260507131530 | 58 | 271 | 0.9 | 3.5 | 0.00 | 0.00 | 0.00 | 91 | 1017.0 |
| 20260507130004 | 58 | 246 | 0.9 | 3.5 | 0.00 | 0.00 | 0.00 | 91 | 1016.8 |
| 20260507124510 | 58 | 270 | 1.7 | 3.5 | 0.00 | 0.00 | 0.00 | 91 | 1016.7 |
| 20260507123015 | 58 | 249 | 0.0 | 1.7 | 0.00 | 0.00 | 0.00 | 91 | 1016.6 |
| 20260507121515 | 58 | 309 | 0.0 | 3.5 | 0.00 | 0.00 | 0.00 | 91 | 1016.7 |
| 20260507120024 | 58 | 297 | 0.9 | 5.2 | 0.00 | 0.00 | 0.00 | 91 | 1016.7 |
| 20260507114526 | 58 | 309 | 1.7 | 6.1 | 0.00 | 0.00 | 0.00 | 92 | 1016.7 |
| 20260507113012 | 58 | 270 | 1.7 | 3.5 | 0.00 | 0.00 | 0.00 | 92 | 1016.6 |
| 20260507111515 | 58 | 252 | 0.9 | 3.5 | 0.00 | 0.00 | 0.00 | 92 | 1016.7 |
| 20260507110020 | 58 | 244 | 0.9 | 2.6 | 0.00 | 0.00 | 0.00 | 92 | 1016.7 |
| 20260507104523 | 58 | 321 | 0.9 | 2.6 | 0.00 | 0.00 | 0.00 | 92 | 1016.8 |
| 20260507103008 | 58 | 314 | 0.0 | 2.6 | 0.00 | 0.00 | 0.00 | 92 | 1016.9 |
| 20260507101513 | 58 | 282 | 0.9 | 2.6 | 0.00 | 0.00 | 0.00 | 92 | 1017.0 |
| 20260507100021 | 58 | 310 | 1.7 | 3.5 | 0.00 | 0.00 | 0.00 | 92 | 1017.2 |
| 20260507094526 | 57 | 281 | 1.7 | 3.5 | 0.00 | 0.00 | 0.00 | 92 | 1017.2 |
| 20260507093028 | 57 | 295 | 1.7 | 3.5 | 0.00 | 0.00 | 0.00 | 92 | 1017.3 |
| 20260507091511 | 58 | 288 | 0.0 | 3.5 | 0.00 | 0.00 | 0.00 | 92 | 1017.4 |
| 20260507090016 | 58 | 298 | 0.9 | 2.6 | 0.00 | 0.00 | 0.00 | 92 | 1017.5 |
| 20260507084521 | 58 | 312 | 0.0 | 2.6 | 0.00 | 0.00 | 0.00 | 92 | 1017.7 |
| 20260507083024 | 58 | 246 | 0.9 | 5.2 | 0.00 | 0.00 | 0.00 | 92 | 1017.9 |
| 20260507081512 | 58 | 304 | 0.9 | 4.3 | 0.00 | 0.00 | 0.00 | 92 | 1018.0 |
| 20260507080003 | 57 | 265 | 1.7 | 4.3 | 0.00 | 0.00 | 0.00 | 91 | 1017.9 |
| 20260507074504 | 57 | 277 | 0.9 | 3.5 | 0.00 | 0.00 | 0.00 | 91 | 1018.0 |
| 20260507073004 | 57 | 289 | 0.9 | 2.6 | 0.00 | 0.00 | 0.00 | 91 | 1018.0 |
| 20260507071506 | 57 | 309 | 0.0 | 2.6 | 0.00 | 0.00 | 0.00 | 91 | 1018.1 |
| 20260507070018 | 57 | 267 | 0.0 | 2.6 | 0.00 | 0.00 | 0.00 | 91 | 1018.2 |
| 20260507064516 | 58 | 288 | 1.7 | 3.5 | 0.00 | 0.00 | 0.00 | 91 | 1018.2 |
| 20260507063002 | 58 | 263 | 0.9 | 2.6 | 0.00 | 0.00 | 0.00 | 91 | 1018.3 |
| 20260507061504 | 58 | 288 | 0.9 | 3.5 | 0.00 | 0.00 | 0.00 | 91 | 1018.3 |
| 20260507060015 | 59 | 311 | 0.9 | 2.6 | 0.00 | 0.00 | 0.00 | 91 | 1018.3 |
| 20260507054511 | 59 | 344 | 0.9 | 3.5 | 0.00 | 0.00 | 0.00 | 91 | 1018.3 |
| 20260507053004 | 59 | 279 | 1.7 | 4.3 | 0.00 | 0.00 | 0.00 | 91 | 1018.2 |
| 20260507051504 | 59 | 336 | 1.7 | 3.5 | 0.00 | 0.00 | 0.00 | 90 | 1018.2 |
| 20260507050015 | 59 | 302 | 0.9 | 3.5 | 0.00 | 0.00 | 0.00 | 90 | 1018.3 |
| 20260507044511 | 59 | 314 | 1.7 | 4.3 | 0.00 | 0.00 | 0.00 | 90 | 1018.3 |
| 20260507043015 | 59 | 305 | 0.9 | 5.2 | 0.00 | 0.00 | 0.00 | 90 | 1018.2 |
| 20260507041503 | 59 | 298 | 0.9 | 6.1 | 0.00 | 0.00 | 0.00 | 89 | 1018.1 |
| 20260507040005 | 59 | 281 | 1.7 | 3.5 | 0.00 | 0.00 | 0.00 | 89 | 1018.0 |
| 20260507034507 | 59 | 261 | 1.7 | 9.6 | 0.00 | 0.00 | 0.00 | 88 | 1017.9 |
| 20260507033013 | 59 | 271 | 2.6 | 6.1 | 0.00 | 0.00 | 0.00 | 87 | 1017.9 |
| 20260507031524 | 60 | 279 | 0.9 | 7.0 | 0.00 | 0.00 | 0.00 | 87 | 1017.7 |
| 20260507030004 | 60 | 293 | 1.7 | 6.1 | 0.00 | 0.00 | 0.00 | 86 | 1017.6 |
| 20260507024507 | 60 | 286 | 1.7 | 7.8 | 0.00 | 0.00 | 0.00 | 85 | 1017.6 |
| 20260507023020 | 61 | 250 | 0.9 | 8.7 | 0.00 | 0.00 | 0.00 | 85 | 1017.4 |
| 20260507021513 | 62 | 247 | 2.6 | 6.1 | 0.00 | 0.00 | 0.00 | 84 | 1017.5 |
| 20260507020024 | 62 | 298 | 1.7 | 8.7 | 0.00 | 0.00 | 0.00 | 83 | 1017.3 |
| 20260507014516 | 62 | 265 | 4.3 | 9.6 | 0.00 | 0.00 | 0.00 | 82 | 1017.4 |
| 20260507013003 | 64 | 277 | 3.5 | 9.6 | 0.00 | 0.00 | 0.00 | 79 | 1017.4 |
| 20260507011529 | 65 | 252 | 5.2 | 9.6 | 0.00 | 0.00 | 0.00 | 77 | 1017.3 |
| 20260507010014 | 66 | 331 | 3.5 | 10.4 | 0.00 | 0.00 | 0.00 | 75 | 1017.4 |
| 20260507004520 | 67 | 240 | 3.5 | 10.4 | 0.00 | 0.00 | 0.00 | 75 | 1017.3 |
| 20260507003020 | 67 | 254 | 4.3 | 12.2 | 0.00 | 0.00 | 0.00 | 74 | 1017.3 |
| 20260507001527 | 67 | 256 | 3.5 | 13.0 | 0.00 | 0.00 | 0.00 | 75 | 1017.1 |
| 20260507000023 | 67 | 222 | 4.3 | 11.3 | 0.00 | 0.00 | 0.00 | 74 | 1017.1 |
| 20260506234523 | 67 | 263 | 5.2 | 12.2 | 0.00 | 0.00 | 0.00 | 74 | 1017.2 |
| 20260506233019 | 67 | 261 | 7.0 | 13.0 | 0.00 | 0.00 | 0.00 | 72 | 1017.2 |
| 20260506231523 | 68 | 267 | 7.0 | 13.0 | 0.00 | 0.00 | 0.00 | 72 | 1017.1 |
| 20260506230024 | 68 | 286 | 6.1 | 12.2 | 0.00 | 0.00 | 0.00 | 71 | 1017.2 |
| 20260506224526 | 69 | 250 | 7.0 | 11.3 | 0.00 | 0.00 | 0.00 | 71 | 1017.2 |
| 20260506223019 | 69 | 229 | 6.1 | 11.3 | 0.00 | 0.00 | 0.00 | 70 | 1017.5 |
| 20260506221522 | 68 | 245 | 7.0 | 11.3 | 0.00 | 0.00 | 0.00 | 69 | 1017.4 |
| 20260506220006 | 68 | 281 | 7.8 | 13.0 | 0.00 | 0.00 | 0.00 | 70 | 1017.5 |
| 20260506214526 | 69 | 265 | 6.1 | 12.2 | 0.00 | 0.00 | 0.00 | 70 | 1017.6 |
| 20260506213028 | 68 | 275 | 7.0 | 13.9 | 0.00 | 0.00 | 0.00 | 69 | 1017.6 |
| 20260506211524 | 68 | 240 | 8.7 | 15.6 | 0.00 | 0.00 | 0.00 | 69 | 1017.8 |
| 20260506210028 | 69 | 262 | 6.1 | 13.0 | 0.00 | 0.00 | 0.00 | 67 | 1017.9 |
| 20260506204510 | 68 | 225 | 9.6 | 13.0 | 0.00 | 0.00 | 0.00 | 67 | 1017.9 |
| 20260506203004 | 69 | 198 | 5.2 | 13.9 | 0.00 | 0.00 | 0.00 | 69 | 1018.0 |
| 20260506201503 | 68 | 264 | 5.2 | 12.2 | 0.00 | 0.00 | 0.00 | 68 | 1018.1 |
| 20260506200003 | 70 | 278 | 8.7 | 13.0 | 0.00 | 0.00 | 0.00 | 66 | 1018.4 |
| 20260506194507 | 68 | 276 | 7.0 | 11.3 | 0.00 | 0.00 | 0.00 | 69 | 1018.6 |
| 20260506193014 | 69 | 275 | 5.2 | 10.4 | 0.00 | 0.01 | 0.00 | 66 | 1018.7 |
| 20260506191503 | 69 | 286 | 6.1 | 10.4 | 0.00 | 0.01 | 0.00 | 64 | 1018.8 |
| 20260506190028 | 68 | 288 | 4.3 | 9.6 | 0.00 | 0.01 | 0.00 | 65 | 1018.9 |
| 20260506184535 | 68 | 249 | 3.5 | 10.4 | 0.00 | 0.01 | 0.00 | 65 | 1019.1 |
| 20260506183012 | 68 | 248 | 5.2 | 10.4 | 0.00 | 0.01 | 0.00 | 65 | 1019.2 |
| 20260506181516 | 68 | 271 | 3.5 | 7.0 | 0.00 | 0.01 | 0.00 | 66 | 1019.2 |
| 20260506180005 | 66 | 258 | 2.6 | 8.7 | 0.00 | 0.01 | 0.00 | 67 | 1019.2 |
| 20260506174522 | 67 | 246 | 3.5 | 7.8 | 0.00 | 0.01 | 0.00 | 68 | 1019.3 |
| 20260506173016 | 66 | 307 | 2.6 | 6.1 | 0.00 | 0.01 | 0.00 | 70 | 1019.2 |
| 20260506171529 | 65 | 240 | 2.6 | 7.0 | 0.00 | 0.01 | 0.00 | 72 | 1019.6 |
| 20260506170021 | 65 | 248 | 1.7 | 7.0 | 0.00 | 0.01 | 0.00 | 72 | 1019.4 |
| 20260506164525 | 63 | 267 | 2.6 | 7.8 | 0.00 | 0.01 | 0.00 | 74 | 1019.3 |
| 20260506163031 | 63 | 240 | 3.5 | 7.0 | 0.00 | 0.01 | 0.00 | 74 | 1019.3 |